Johnstown, PA

6:14 AM EDT on August 20, 2017 (GMT -0400)
Johnstown-Cambria County

Weather History for KJST - September, 2014

Change the Weather History Date:

Tuesday, September 2, 2014

  Actual Average Record
Temperature  
Mean Temperature 73 °F 65 °F  
Max Temperature 80 °F 73 °F 100 °F (1953)
Min Temperature 66 °F 57 °F 42 °F (1949)
Degree Days  
Heating Degree Days 0 2  
Month to date heating degree days 0 4  
Since 1 July heating degree days 83 46  
Cooling Degree Days 8 2  
Month to date cooling degree days 16 4  
Year to date cooling degree days 311 364  
Growing Degree Days 23 (Base 50)    
Moisture  
Dew Point 65 °F    
Average Humidity 78    
Maximum Humidity 93    
Minimum Humidity 62    
Precipitation  
Precipitation 0.22 in 0.11 in 2.14 in (1981)
Month to date precipitation 0.29 0.22  
Year to date precipitation 26.19 24.51  
Sea Level Pressure  
Sea Level Pressure 29.98 in    
Wind  
Wind Speed 11 mph (WSW)    
Max Wind Speed 23 mph    
Max Gust Speed 33 mph    
Visibility 9 miles    
Events Rain    
T = Trace of Precipitation, MM = Missing Value Source: NWS Daily Summary

Daily Weather History Graph

Daily Weather History Graph

Search for Another Location

Airport or City:

Trip Planner

Search our weather history database for the weather conditions in past years. The results will help you decide how hot, cold, wet, or windy it might be!

Date:

Astronomy

Sep. 02, 2014 Rise Set
Actual Time 6:43 AM EDT 7:45 PM EDT
Civil Twilight 6:15 AM EDT 8:13 PM EDT
Nautical Twilight 5:42 AM EDT 8:46 PM EDT
Astronomical Twilight 5:07 AM EDT 9:20 PM EDT
Moon 2:27 PM EDT (9/2) No Moon Set
Length of Visible Light 13h 57m
Length of Day
13h 01m
First Quarter, 52% of the Moon is Illuminated
Sep 2
First Quarter
Sep 8
Full
Sep 15
Last Quarter
Sep 24
New
Oct 1
First Quarter

Hourly Weather History & Observations

Time (EDT) Temp. Heat Index Dew Point Humidity Pressure Visibility Wind Dir Wind Speed Gust Speed Precip Events Conditions
12:54 AM 71.1 °F - 64.9 °F 81% 30.00 in 10.0 mi SSW 10.4 mph - N/A   Overcast
1:15 AM 71.1 °F - 64.9 °F 81% 30.05 in 10.0 mi SSW 9.2 mph - N/A   Overcast
1:54 AM 70.0 °F - 64.9 °F 84% 30.00 in 10.0 mi SW 6.9 mph - N/A   Mostly Cloudy
2:54 AM 69.1 °F - 64.9 °F 87% 29.99 in 10.0 mi SSW 6.9 mph - N/A   Mostly Cloudy
3:13 AM 70.0 °F - 64.9 °F 84% 30.03 in 10.0 mi SW 6.9 mph - N/A   Overcast
3:31 AM 70.0 °F - 64.9 °F 84% 30.02 in 10.0 mi SSW 6.9 mph - N/A   Overcast
3:39 AM 71.1 °F - 64.9 °F 81% 30.02 in 10.0 mi SW 8.1 mph - N/A   Overcast
3:54 AM 70.0 °F - 64.9 °F 84% 29.97 in 10.0 mi SW 9.2 mph - N/A   Overcast
4:54 AM 71.1 °F - 66.0 °F 84% 29.97 in 10.0 mi WSW 8.1 mph - N/A   Overcast
5:54 AM 70.0 °F - 66.0 °F 87% 29.98 in 10.0 mi WSW 10.4 mph - N/A   Overcast
6:54 AM 70.0 °F - 66.0 °F 87% 29.99 in 9.0 mi West 17.3 mph 23.0 mph N/A   Overcast
7:54 AM 70.0 °F - 66.0 °F 87% 29.99 in 8.0 mi West 11.5 mph - N/A   Overcast
8:27 AM 70.0 °F - 66.0 °F 87% 30.04 in 9.0 mi West 12.7 mph - N/A   Overcast
8:36 AM 71.1 °F - 66.0 °F 84% 30.04 in 9.0 mi West 12.7 mph - N/A   Overcast
8:54 AM 70.0 °F - 64.9 °F 84% 30.01 in 10.0 mi West 16.1 mph 26.5 mph N/A   Overcast
9:36 AM 73.0 °F - 64.9 °F 76% 30.04 in 10.0 mi West 12.7 mph 24.2 mph N/A   Scattered Clouds
9:54 AM 72.0 °F - 64.9 °F 78% 30.00 in 10.0 mi WSW 15.0 mph 19.6 mph N/A   Scattered Clouds
10:16 AM 73.0 °F - 64.9 °F 76% 30.05 in 10.0 mi West 13.8 mph 19.6 mph N/A   Mostly Cloudy
10:54 AM 73.9 °F - 64.9 °F 73% 30.00 in 10.0 mi SW 11.5 mph - N/A   Overcast
11:54 AM 73.0 °F - 64.9 °F 76% 29.99 in 10.0 mi WSW 10.4 mph - N/A   Overcast
12:54 PM 75.0 °F - 66.0 °F 73% 29.96 in 10.0 mi WSW 8.1 mph - N/A   Mostly Cloudy
1:54 PM 77.0 °F - 66.9 °F 71% 29.94 in 10.0 mi Variable 6.9 mph - N/A   Overcast
2:54 PM 79.0 °F - 66.0 °F 64% 29.92 in 10.0 mi SW 11.5 mph - N/A   Scattered Clouds
3:54 PM 80.1 °F 82.1 °F 66.0 °F 62% 29.87 in 10.0 mi SW 15.0 mph 20.7 mph N/A   Scattered Clouds
4:51 PM 75.2 °F - 64.4 °F 69% 29.94 in 10.0 mi SW 18.4 mph 26.5 mph 0.00 in Rain Light Rain
4:54 PM 75.0 °F - 64.9 °F 71% 29.89 in 10.0 mi SW 17.3 mph 25.3 mph 0.00 in Rain Light Rain
5:54 PM 73.0 °F - 66.0 °F 79% 29.88 in 10.0 mi WSW 11.5 mph - 0.03 in   Clear
6:54 PM 73.0 °F - 64.9 °F 76% 29.88 in 10.0 mi WSW 19.6 mph 25.3 mph N/A   Scattered Clouds
7:54 PM 72.0 °F - 64.9 °F 78% 29.92 in 10.0 mi West 9.2 mph - N/A   Mostly Cloudy
8:02 PM 69.1 °F - 66.0 °F 90% 29.97 in 2.0 mi NNW 19.6 mph 25.3 mph 0.14 in Rain Heavy Rain
8:07 PM 68.0 °F - 66.0 °F 93% 29.98 in 1.8 mi WNW 15.0 mph 25.3 mph 0.15 in Rain Rain
8:10 PM 68.0 °F - 66.0 °F 93% 29.98 in 2.0 mi NW 11.5 mph 24.2 mph 0.15 in Rain Light Rain
8:13 PM 68.0 °F - 66.0 °F 93% 29.97 in 7.0 mi NW 11.5 mph 23.0 mph 0.15 in Rain Light Rain
8:38 PM 68.0 °F - 66.0 °F 93% 29.98 in 10.0 mi WNW 8.1 mph - 0.19 in   Overcast
8:51 PM 68.0 °F - 64.4 °F 88% 29.99 in 10.0 mi NW 12.7 mph - 0.19 in   Overcast
8:54 PM 68.0 °F - 64.9 °F 90% 29.95 in 10.0 mi NW 10.4 mph - 0.19 in   Overcast
9:23 PM 68.0 °F - 64.9 °F 90% 30.00 in 10.0 mi WNW 8.1 mph - N/A   Mostly Cloudy
9:54 PM 68.0 °F - 64.9 °F 90% 29.96 in 10.0 mi WNW 8.1 mph - N/A   Mostly Cloudy
10:54 PM 66.0 °F - 64.0 °F 93% 29.98 in 10.0 mi WNW 8.1 mph - N/A   Partly Cloudy
11:54 PM 66.0 °F - 64.0 °F 93% 29.98 in 8.0 mi WNW 5.8 mph - N/A   Partly Cloudy